Regional Weather Roundup
Issued by NWS Albany, NY

Home | Current Version | Previous Version | Text Only | Print | Product List | Glossary On
Versions: 1 2 3 4 5 6 7 8 9 10 11 12 13 14 15 16 17 18 19 20 21 22 23 24 25 26 27 28 29 30 31 32 33 34 35 36 37 38 39 40 41 42 43 44 45 46 47 48 49 50
000
ASUS41 KALY 301010
RWRALY

NEW YORK STATE HOURLY WEATHER ROUNDUP
NATIONAL WEATHER SERVICE ALBANY NY
600 AM EDT THU MAR 30 2017

NOTE: "FAIR" INDICATES FEW OR NO CLOUDS BELOW 12,000 FEET WITH NO
SIGNIFICANT WEATHER AND/OR NO OBSTRUCTIONS TO VISIBILITY.

NYZ032-033-038>043-046>054-057>066-NYZ062>081-082-084-301100-
EAST


CITY           SKY/WX    TMP DP  RH WIND       PRES   REMARKS
ALBANY         PTCLDY    29  20  69 N3        30.26R
GLENS FALLS    CLEAR     26  20  77 NW5       30.26R WCI  20
POUGHKEEPSIE   CLOUDY    27  23  85 CALM      30.25R
NEWBURGH       CLEAR     30  27  86 NW5       30.25R WCI  25
MONTGOMERY     CLEAR     28  24  85 CALM      30.23R
WHITE PLAINS   CLEAR     31  22  69 N3        30.23R
ISLIP          CLEAR     33  25  72 N7        30.23R WCI  27
NEW YORK CITY  PTCLDY    41  23  48 N7        30.24R
CENTRAL PARK   CLEAR     38  22  52 NW3       30.27R
$$

NYZ005>009-017-018-044>046-055-056-301100-
CENTRAL


CITY           SKY/WX    TMP DP  RH WIND       PRES   REMARKS
FULTON         CLOUDY    27  24  89 CALM      30.30R
SYRACUSE       CLOUDY    27  25  92 W8        30.30R WCI  19
ROME           CLEAR     22  20  92 CALM      30.30R
ELMIRA         PTCLDY    27  23  85 CALM      30.26F
BINGHAMTON     CLEAR     28  19  69 N6        30.22S WCI  22
MONTICELLO     CLEAR     27  21  80 NW6       30.22R WCI  20
$$

NYZ026>034-041>043-087-301100-
NORTH


CITY           SKY/WX    TMP DP  RH WIND       PRES   REMARKS
WATERTOWN      CLEAR     18  18 100 CALM      30.32R
FORT DRUM      NOT AVBL
MASSENA        CLEAR     25  20  81 CALM      30.31R
SARANAC LAKE   MOCLDY    21  16  81 N5        30.19R WCI  15
PLATTSBURGH    CLOUDY    33  21  61 N8        30.28R WCI  26
$$

NYZ001>004-010>016-019>021-085-301100-
WEST


CITY           SKY/WX    TMP DP  RH WIND       PRES   REMARKS
NIAGARA FALLS  CLOUDY    37  25  61 E12       30.24F WCI  29
BUFFALO        CLOUDY    35  26  69 E9        30.24F WCI  28
DUNKIRK        CLOUDY    37  27  67 NE9       30.20F WCI  30
JAMESTOWN      CLOUDY    36  21  55 E6        30.15S WCI  31
WELLSVILLE     CLOUDY    29  24  82 CALM      30.19F
ROCHESTER      CLOUDY    34  26  72 E3        30.28F
PENN YAN       PTCLDY    30  25  81 CALM      30.27F
$$

             KEY
       WCI = WIND CHILL INDEX
       VSB = VISIBILITY
       HX  = HEAT INDEX
$$



USA.gov is the U.S. government's official web portal to all federal, state and local government web resources and services.